SCP
-0 -0 0 -0 -0 -0 -0 -0 -0 -0 -0 -0 -0 -0 -0 -0 -0 -0 -0 -0 0 0 -0 -0 -0 -0 -0 -0 -0 -0 -0 -0 -0 -0 -0 -0 -0 -0 -0 -0 -0 -0 -0
0 -0 -0 -0 -0 -0 -0 -0 -0 -0 -0 -0 -0 -0 -0 -0 -0 -0 -0 -0 -0 -0 0 -0 -0 -0 -0 -0 -0 -0 -0 -0 -0 -0 -0 -0 -0 -0 -0 -0 -0 -0 -0
-0 -0 -0 -0 -0 -0 -0 -0 -0 -0 -0 -0 -0 -0 -0 -0 -0 -0 -0 -0 -0 -0 -0 -0 -0 -0 -0 -0 -0 -0 -0 -0 -0 -0 -0 -0 0 -0 -0 -0 -0 -0 -0
-0 -0 -0 -0 -0 -0 -0 -0 -0 -0 -0 -0 -0 -0 -0 -0 -0 -0 -0 -0 -0 -0 -0 -0 -0 -0 -0 -0 -0 -0 -0 -0 -0 -0 0 0 0 -0 -0 -0 -0 -0 -0
-0 -0 -0 -0 -0 -0 -0 -0 -0 -0 -0 -0 -0 -0 -0 -0 -0 -0 -0 -0 -0 -0 -0 -0 -0 -0 -0 -0 -0 -0 -0 -0 -0 0 0 0 -0 0 -0 -0 0 -0 -0
-0 -0 -0 -0 -0 -0 -0 -0 -0 -0 -0 -0 -0 -0 -0 -0 -0 -0 -0 -0 -0 -0 -0 -0 -0 -0 -0 -0 -0 -0 -0 -0 0 0 0 0 -0 0 -0 -0 0 0 0
-0 -0 -0 -0 -0 -0 -0 -0 -0 -0 -0 -0 -0 -0 -0 -0 -0 -0 -0 -0 -0 -0 -0 -0 -0 -0 -0 -0 -0 -0 -0 -0 0 0 0 0 0 0 0 0 0 0 0
-0 -0 -0 -0 -0 -0 -0 -0 -0 -0 -0 -0 -0 -0 -0 -0 -0 -0 -0 -0 -0 -0 -0 -0 -0 -0 -0 -0 -0 -0 -0 -0 0 0 0 0 0 0 0 0 0 0 0
-0 -0 0 0 -0 -0 -0 -0 -0 -0 -0 -0 -0 -0 -0 -0 -0 -0 0 -0 -0 -0 -0 -0 -0 -0 -0 -0 -0 -0 -0 -0 0 0 0 0 0 0 0 0 0 0 0
0 0 0 0 0 -0 -0 -0 -0 -0 -0 -0 -0 -0 -0 -0 0 -0 -0 -0 -0 -0 -0 0 -0 -0 -0 -0 -0 0 0 0 0 0 0 0 0 0 0 0 0 0 0
0 0 0 0 0 0 0 0 -0 -0 -0 -0 -0 -0 -0 0 0 0 0 0 0 0 0 0 0 0 0 -0 -0 -0 0 0 0 0 0 0 0 0 0 0 0 0 0
0 0 0 0 0 0 0 0 0 0 0 0 0 0 0 0 0 0 0 0 0 0 0 0 0 0 0 0 0 0 0 0 0 0 0 0 0 0 0 0 0 0 0
0 0 0 0 0 0 0 0 0 0 0 0 0 0 0 0 0 0 0 0 0 0 0 0 0 0 0 0 0 0 0 0 0 0 0 0 0 0 0 0 0 0 0
0 0 0 0 0 0 0 0 0 0 0 0 0 0 0 0 0 0 0 0 0 0 0 0 0 0 0 0 0 0 0 0 0 0 0 0 0 0 -0 0 0 0 0
0 0 0 0 0 0 0 0 0 0 0 0 0 0 0 0 0 0 0 0 0 0 0 0 0 0 0 0 0 0 0 0 0 0 0 0 0 0 0 0 0 0 0
0 0 0 0 0 0 0 0 0 0 0 0 0 0 0 0 0 0 0 0 0 0 0 0 0 0 0 0 0 0 0 0 0 0 0 0 0 0 0 0 0 0 0
0 0 0 0 0 0 0 0 0 0 0 0 0 0 0 0 0 0 0 0 0 0 0 0 0 0 0 0 0 0 0 0 0 0 0 0 0 0 0 0 0 0 0
0 0 0 0 0 0 0 0 0 0 0 0 0 0 0 0 0 0 0 0 0 0 0 0 0 0 0 0 0 0 0 0 0 0 0 0 0 0 0 0 0 0 0
0 0 0 0 0 0 0 0 0 0 0 0 0 0 0 0 0 0 0 0 0 0 0 0 0 0 0 0 0 0 0 0 0 0 0 0 0 0 0 0 0 0 0
0 0 0 0 0 0 0 0 0 0 0 0 0 0 0 0 0 0 0 0 0 0 0 0 0 0 0 0 0 0 0 0 0 0 0 0 0 0 0 0 0 0 0
0 0 0 0 0 0 0 0 0 0 0 0 0 0 0 0 0 0 0 0 0 0 0 0 0 0 0 0 0 0 0 0 0 0 0 0 0 0 0 0 0 0 0
0 0 0 0 0 0 0 0 0 0 0 0 0 0 0 0 0 0 0 0 0 0 0 0 0 0 0 0 0 0 0 0 0 0 0 0 0 0 0 0 0 0 0
0 0 0 0 0 0 0 0 0 0 0 0 0 0 0 0 0 0 0 0 0 0 0 0 0 0 0 0 0 0 0 0 0 0 0 0 0 0 0 0 0 0 0
0 0 0 0 0 0 0 0 0 0 0 0 0 0 0 0 0 0 0 0 0 0 0 0 0 0 0 0 0 0 0 0 0 0 0 0 0 0 0 0 0 0 0
0 0 0 0 0 0 0 0 0 0 0 0 0 0 0 0 0 0 0 0 0 0 0 0 0 0 0 0 0 0 0 0 0 0 0 0 0 0 0 0 0 0 0
0 0 0 0 0 0 0 0 0 0 0 0 0 0 0 0 0 0 0 0 0 0 0 0 0 0 0 0 0 0 0 0 0 0 0 0 0 0 0 0 0 0 0
Wind_Speed_500mb
25 25 26 29 30 28 24 25 24 24 21 23 27 27 27 30 32 31 27 24 26 25 25 27 27 24 25 24 22 25 24 22 24 24 20 20 21 22 24 26 25 31 29
22 29 28 28 26 24 23 23 22 22 18 20 23 25 27 31 32 33 29 25 24 24 25 26 26 25 23 20 22 24 25 23 26 25 27 24 21 19 18 17 18 22 24
24 31 29 25 24 22 20 18 19 18 13 17 20 23 26 29 31 33 32 26 23 24 23 24 24 22 20 16 18 20 23 23 27 28 26 28 27 23 21 19 14 11 12
27 31 29 26 23 21 18 16 16 14 14 14 14 16 22 25 30 31 31 29 25 22 21 21 20 19 17 13 14 15 16 20 24 25 24 25 26 23 22 22 20 17 15
29 31 27 27 26 23 19 15 15 13 12 10 9 15 19 21 25 28 29 30 26 22 21 20 18 16 14 10 11 11 13 16 20 23 27 27 27 28 28 27 26 25 22
26 31 28 26 25 22 17 15 14 10 10 8 9 14 15 19 23 25 28 27 25 24 22 21 19 16 12 9 9 9 12 16 19 22 25 28 28 30 30 30 28 26 24
27 28 28 27 25 22 18 16 14 11 10 8 9 11 12 16 18 22 23 21 20 20 22 22 21 18 16 12 10 12 13 16 18 21 24 25 28 28 28 28 28 27 26
26 29 27 27 26 24 21 18 16 15 12 9 11 11 10 11 14 18 21 23 20 18 19 20 20 19 20 18 17 18 18 20 21 22 23 24 25 25 25 25 26 26 25
30 29 29 24 24 25 22 19 17 16 13 9 10 9 7 9 13 17 22 29 22 21 19 18 18 19 18 18 19 20 20 20 19 21 21 22 26 26 26 26 26 26 25
37 35 36 30 33 29 26 24 24 21 16 13 12 11 6 4 9 9 14 23 26 23 23 21 20 19 18 19 20 19 18 15 14 16 18 20 20 19 20 21 22 23 25
38 39 42 38 38 33 30 28 25 26 23 18 16 15 12 8 7 2 5 17 21 23 24 22 21 21 20 18 18 17 14 13 14 13 13 15 15 17 17 17 18 31 30
46 38 45 41 45 41 36 34 30 28 27 24 19 21 17 16 15 9 4 7 9 14 20 21 20 20 20 21 20 17 14 14 12 12 12 13 13 13 13 12 13 12 18
47 47 46 47 47 48 43 41 40 40 34 32 29 28 24 22 19 16 13 4 3 7 10 13 12 12 13 16 15 15 14 14 15 16 17 17 14 15 17 18 18 18 16
48 47 48 49 47 45 44 45 47 46 43 38 36 35 30 28 23 20 19 9 7 7 8 6 7 5 6 7 9 10 11 11 13 15 15 16 17 19 20 20 20 21 20
48 47 49 51 52 51 53 48 50 47 48 44 43 42 36 33 29 27 25 15 14 10 8 5 4 2 2 1 5 7 10 13 14 14 16 17 18 19 21 23 24 25 26
48 49 50 52 52 53 56 54 53 51 49 45 44 44 40 38 36 35 32 21 17 12 10 8 5 6 5 1 4 8 10 10 11 13 15 17 19 20 23 24 25 26 27
45 45 45 47 50 52 54 55 52 54 49 46 44 44 43 39 48 45 30 28 21 17 15 11 14 10 3 5 2 6 6 7 10 14 18 20 22 24 25 27 29 30 31
48 45 43 43 43 46 50 48 50 53 51 46 46 46 44 52 38 43 36 29 23 21 19 14 8 5 7 7 3 5 4 6 10 12 15 19 22 26 29 33 33 34 34
51 49 46 45 44 47 52 53 53 52 50 43 52 47 45 53 45 37 33 29 26 24 23 16 10 7 10 12 12 12 11 9 11 14 15 19 24 28 32 34 36 35 35
56 52 50 48 47 50 54 53 55 55 53 50 46 44 54 49 43 40 33 29 25 22 20 16 14 16 15 15 17 16 13 9 8 9 15 21 29 33 36 38 40 40 39
60 58 53 51 51 52 56 62 61 61 57 53 51 46 39 43 43 37 35 33 28 24 23 21 18 18 21 20 16 15 11 6 3 10 17 24 31 38 39 39 42 44 44
63 57 54 52 48 49 56 66 64 61 59 56 50 43 42 42 41 38 36 34 31 28 25 20 14 17 21 16 8 8 9 7 10 12 15 23 33 34 36 40 43 46 48
71 64 58 53 49 55 65 66 65 67 64 58 55 49 47 45 42 39 38 37 34 28 25 23 21 17 15 15 11 8 6 8 8 8 9 25 30 34 36 39 43 45 48
73 62 57 54 55 55 62 64 67 64 67 64 60 52 53 46 45 44 42 39 34 28 23 20 16 12 9 9 9 6 5 3 2 4 9 18 27 31 35 39 41 43 47
71 64 61 59 54 57 66 69 74 77 70 65 61 58 55 54 51 48 43 37 30 24 21 16 12 7 5 4 5 5 7 8 10 10 10 27 24 31 34 35 40 42 48
71 67 66 62 59 61 67 68 70 74 74 69 66 65 65 63 59 52 44 35 28 25 21 16 10 6 5 4 4 5 6 9 14 16 22 29 31 31 33 38 39 44 51
Wind_Direction_500mb
163 160 154 147 139 136 124 115 108 107 93 89 76 70 65 59 56 57 62 68 70 70 75 78 76 84 81 80 70 64 56 56 56 63 62 57 56 59 67 70 74 67 61
167 166 164 154 147 141 131 123 116 109 98 86 68 62 54 55 54 54 58 63 71 75 75 76 77 83 85 87 70 64 67 56 55 55 53 50 47 43 45 48 55 64 66
172 166 166 162 154 149 137 128 120 114 104 84 63 58 59 59 56 54 54 65 74 74 76 79 83 83 88 85 69 61 60 47 48 50 45 44 41 42 42 40 36 30 43
176 169 166 168 164 160 150 138 134 124 119 96 77 65 62 58 57 56 58 65 70 73 77 80 84 90 91 90 80 72 55 42 30 29 30 29 39 42 42 43 42 40 33
173 174 170 172 173 171 166 157 152 141 133 113 93 85 68 60 59 56 58 60 65 68 69 73 81 89 97 102 92 73 53 39 30 27 30 32 37 41 40 40 41 41 41
166 179 175 179 176 177 175 169 162 151 146 136 118 92 74 75 66 60 53 55 57 58 63 69 73 77 88 87 82 65 40 23 16 25 35 37 37 37 35 33 34 35 36
168 180 180 184 179 176 177 180 172 158 149 148 146 115 96 79 61 50 50 54 61 64 64 66 69 77 84 84 79 65 50 40 41 40 40 41 42 38 36 33 32 30 29
175 176 187 193 192 185 180 185 183 162 150 152 159 136 115 81 66 61 54 51 55 64 68 71 75 76 78 80 74 67 57 52 48 47 44 40 42 39 38 36 34 33 30
184 180 186 196 203 201 195 195 194 184 165 166 173 170 127 85 64 59 50 43 56 63 67 69 72 73 75 77 77 74 67 63 56 53 49 44 41 35 32 30 27 25 24
180 191 199 195 206 211 205 203 199 199 193 185 193 195 181 112 84 46 53 51 55 59 61 69 78 84 83 82 80 77 73 69 64 58 51 48 44 39 35 31 27 25 21
197 195 205 201 203 201 210 211 214 211 210 202 205 201 193 170 177 163 58 47 55 64 68 65 78 84 85 86 87 86 86 78 66 59 54 52 42 35 30 29 29 39 22
214 211 207 204 207 203 207 217 219 226 223 220 220 222 216 202 188 205 185 47 66 68 75 77 78 81 82 82 83 84 81 76 72 61 52 49 41 32 25 18 15 13 48
218 221 219 221 211 215 214 212 211 218 220 223 224 226 222 214 204 214 204 207 146 114 92 101 101 91 95 96 93 82 71 59 49 44 40 31 24 12 10 11 8 4 360
223 222 221 220 221 217 215 215 212 214 217 222 228 221 225 215 214 211 218 208 181 177 161 139 128 96 90 104 81 62 51 40 38 38 41 32 25 19 15 9 4 357 348
224 225 224 224 224 224 226 225 216 216 220 224 227 229 232 218 217 226 209 212 237 214 195 176 147 291 334 172 42 25 17 15 24 29 29 25 22 18 11 13 10 5 359
228 228 226 224 224 225 225 226 217 218 219 220 223 227 226 215 216 219 216 234 234 227 203 192 279 288 244 45 28 16 11 28 37 37 36 33 30 24 20 21 17 14 10
231 226 224 223 224 224 224 221 215 219 220 216 217 217 220 223 231 202 224 235 218 218 222 219 258 247 249 99 19 36 51 56 52 43 36 37 34 31 27 27 23 22 19
223 222 223 225 225 225 223 214 207 212 218 219 218 216 211 207 217 220 233 230 219 212 220 231 237 251 172 153 158 118 85 68 44 41 42 37 29 22 14 12 7 7 5
228 230 231 231 229 223 219 210 207 210 210 214 210 213 210 205 214 232 223 220 215 211 216 201 192 159 148 152 142 125 113 98 79 62 38 27 18 7 2 360 356 355 356
230 233 234 235 233 225 219 209 208 211 214 211 212 218 206 218 221 220 213 208 198 189 186 178 168 153 143 141 137 134 123 94 61 34 24 12 8 3 0 358 355 357 357
230 233 235 235 233 225 214 202 206 210 211 210 201 209 217 214 209 199 196 190 183 185 169 152 153 144 139 144 149 140 137 132 15 0 1 358 359 359 356 355 356 355 357
233 235 233 232 230 221 207 203 203 207 208 204 202 208 206 195 190 188 190 183 171 168 157 151 150 156 148 161 196 177 183 236 290 310 339 354 355 356 354 358 358 358 357
230 230 229 229 225 217 206 204 204 205 200 198 192 198 196 188 189 184 177 172 167 169 169 166 157 154 153 146 167 212 204 225 281 288 323 352 355 358 359 359 358 357 357
229 227 225 224 221 216 204 206 207 206 205 197 192 197 195 185 177 172 172 172 172 172 173 169 162 163 142 141 149 155 165 216 165 230 295 345 3 0 359 358 357 355 351
226 224 221 219 217 208 208 208 209 204 201 202 194 194 187 177 175 174 174 173 175 174 172 170 162 147 111 62 41 35 9 354 348 345 334 344 357 6 359 357 354 352 348
221 219 217 215 210 207 207 205 205 209 203 197 194 193 185 179 177 177 175 177 178 176 176 170 150 121 87 47 11 2 3 2 356 358 347 345 349 349 354 350 351 348 347
Wind_Speed_850mb
25 25 26 29 30 28 24 25 24 24 21 23 27 27 27 30 32 31 27 24 26 25 25 27 27 24 25 24 22 25 24 22 24 24 20 20 21 22 24 26 25 31 29
22 29 28 28 26 24 23 23 22 22 18 20 23 25 27 31 32 33 29 25 24 24 25 26 26 25 23 20 22 24 25 23 26 25 27 24 21 19 18 17 18 22 24
24 31 29 25 24 22 20 18 19 18 13 17 20 23 26 29 31 33 32 26 23 24 23 24 24 22 20 16 18 20 23 23 27 28 26 28 27 23 21 19 14 11 12
27 31 29 26 23 21 18 16 16 14 14 14 14 16 22 25 30 31 31 29 25 22 21 21 20 19 17 13 14 15 16 20 24 25 24 25 26 23 22 22 20 17 15
29 31 27 27 26 23 19 15 15 13 12 10 9 15 19 21 25 28 29 30 26 22 21 20 18 16 14 10 11 11 13 16 20 23 27 27 27 28 28 27 26 25 22
26 31 28 26 25 22 17 15 14 10 10 8 9 14 15 19 23 25 28 27 25 24 22 21 19 16 12 9 9 9 12 16 19 22 25 28 28 30 30 30 28 26 24
27 28 28 27 25 22 18 16 14 11 10 8 9 11 12 16 18 22 23 21 20 20 22 22 21 18 16 12 10 12 13 16 18 21 24 25 28 28 28 28 28 27 26
26 29 27 27 26 24 21 18 16 15 12 9 11 11 10 11 14 18 21 23 20 18 19 20 20 19 20 18 17 18 18 20 21 22 23 24 25 25 25 25 26 26 25
30 29 29 24 24 25 22 19 17 16 13 9 10 9 7 9 13 17 22 29 22 21 19 18 18 19 18 18 19 20 20 20 19 21 21 22 26 26 26 26 26 26 25
37 35 36 30 33 29 26 24 24 21 16 13 12 11 6 4 9 9 14 23 26 23 23 21 20 19 18 19 20 19 18 15 14 16 18 20 20 19 20 21 22 23 25
38 39 42 38 38 33 30 28 25 26 23 18 16 15 12 8 7 2 5 17 21 23 24 22 21 21 20 18 18 17 14 13 14 13 13 15 15 17 17 17 18 31 30
46 38 45 41 45 41 36 34 30 28 27 24 19 21 17 16 15 9 4 7 9 14 20 21 20 20 20 21 20 17 14 14 12 12 12 13 13 13 13 12 13 12 18
47 47 46 47 47 48 43 41 40 40 34 32 29 28 24 22 19 16 13 4 3 7 10 13 12 12 13 16 15 15 14 14 15 16 17 17 14 15 17 18 18 18 16
48 47 48 49 47 45 44 45 47 46 43 38 36 35 30 28 23 20 19 9 7 7 8 6 7 5 6 7 9 10 11 11 13 15 15 16 17 19 20 20 20 21 20
48 47 49 51 52 51 53 48 50 47 48 44 43 42 36 33 29 27 25 15 14 10 8 5 4 2 2 1 5 7 10 13 14 14 16 17 18 19 21 23 24 25 26
48 49 50 52 52 53 56 54 53 51 49 45 44 44 40 38 36 35 32 21 17 12 10 8 5 6 5 1 4 8 10 10 11 13 15 17 19 20 23 24 25 26 27
45 45 45 47 50 52 54 55 52 54 49 46 44 44 43 39 48 45 30 28 21 17 15 11 14 10 3 5 2 6 6 7 10 14 18 20 22 24 25 27 29 30 31
48 45 43 43 43 46 50 48 50 53 51 46 46 46 44 52 38 43 36 29 23 21 19 14 8 5 7 7 3 5 4 6 10 12 15 19 22 26 29 33 33 34 34
51 49 46 45 44 47 52 53 53 52 50 43 52 47 45 53 45 37 33 29 26 24 23 16 10 7 10 12 12 12 11 9 11 14 15 19 24 28 32 34 36 35 35
56 52 50 48 47 50 54 53 55 55 53 50 46 44 54 49 43 40 33 29 25 22 20 16 14 16 15 15 17 16 13 9 8 9 15 21 29 33 36 38 40 40 39
60 58 53 51 51 52 56 62 61 61 57 53 51 46 39 43 43 37 35 33 28 24 23 21 18 18 21 20 16 15 11 6 3 10 17 24 31 38 39 39 42 44 44
63 57 54 52 48 49 56 66 64 61 59 56 50 43 42 42 41 38 36 34 31 28 25 20 14 17 21 16 8 8 9 7 10 12 15 23 33 34 36 40 43 46 48
71 64 58 53 49 55 65 66 65 67 64 58 55 49 47 45 42 39 38 37 34 28 25 23 21 17 15 15 11 8 6 8 8 8 9 25 30 34 36 39 43 45 48
73 62 57 54 55 55 62 64 67 64 67 64 60 52 53 46 45 44 42 39 34 28 23 20 16 12 9 9 9 6 5 3 2 4 9 18 27 31 35 39 41 43 47
71 64 61 59 54 57 66 69 74 77 70 65 61 58 55 54 51 48 43 37 30 24 21 16 12 7 5 4 5 5 7 8 10 10 10 27 24 31 34 35 40 42 48
71 67 66 62 59 61 67 68 70 74 74 69 66 65 65 63 59 52 44 35 28 25 21 16 10 6 5 4 4 5 6 9 14 16 22 29 31 31 33 38 39 44 51
Wind_Direction_850mb
163 160 154 147 139 136 124 115 108 107 93 89 76 70 65 59 56 57 62 68 70 70 75 78 76 84 81 80 70 64 56 56 56 63 62 57 56 59 67 70 74 67 61
167 166 164 154 147 141 131 123 116 109 98 86 68 62 54 55 54 54 58 63 71 75 75 76 77 83 85 87 70 64 67 56 55 55 53 50 47 43 45 48 55 64 66
172 166 166 162 154 149 137 128 120 114 104 84 63 58 59 59 56 54 54 65 74 74 76 79 83 83 88 85 69 61 60 47 48 50 45 44 41 42 42 40 36 30 43
176 169 166 168 164 160 150 138 134 124 119 96 77 65 62 58 57 56 58 65 70 73 77 80 84 90 91 90 80 72 55 42 30 29 30 29 39 42 42 43 42 40 33
173 174 170 172 173 171 166 157 152 141 133 113 93 85 68 60 59 56 58 60 65 68 69 73 81 89 97 102 92 73 53 39 30 27 30 32 37 41 40 40 41 41 41
166 179 175 179 176 177 175 169 162 151 146 136 118 92 74 75 66 60 53 55 57 58 63 69 73 77 88 87 82 65 40 23 16 25 35 37 37 37 35 33 34 35 36
168 180 180 184 179 176 177 180 172 158 149 148 146 115 96 79 61 50 50 54 61 64 64 66 69 77 84 84 79 65 50 40 41 40 40 41 42 38 36 33 32 30 29
175 176 187 193 192 185 180 185 183 162 150 152 159 136 115 81 66 61 54 51 55 64 68 71 75 76 78 80 74 67 57 52 48 47 44 40 42 39 38 36 34 33 30
184 180 186 196 203 201 195 195 194 184 165 166 173 170 127 85 64 59 50 43 56 63 67 69 72 73 75 77 77 74 67 63 56 53 49 44 41 35 32 30 27 25 24
180 191 199 195 206 211 205 203 199 199 193 185 193 195 181 112 84 46 53 51 55 59 61 69 78 84 83 82 80 77 73 69 64 58 51 48 44 39 35 31 27 25 21
197 195 205 201 203 201 210 211 214 211 210 202 205 201 193 170 177 163 58 47 55 64 68 65 78 84 85 86 87 86 86 78 66 59 54 52 42 35 30 29 29 39 22
214 211 207 204 207 203 207 217 219 226 223 220 220 222 216 202 188 205 185 47 66 68 75 77 78 81 82 82 83 84 81 76 72 61 52 49 41 32 25 18 15 13 48
218 221 219 221 211 215 214 212 211 218 220 223 224 226 222 214 204 214 204 207 146 114 92 101 101 91 95 96 93 82 71 59 49 44 40 31 24 12 10 11 8 4 360
223 222 221 220 221 217 215 215 212 214 217 222 228 221 225 215 214 211 218 208 181 177 161 139 128 96 90 104 81 62 51 40 38 38 41 32 25 19 15 9 4 357 348
224 225 224 224 224 224 226 225 216 216 220 224 227 229 232 218 217 226 209 212 237 214 195 176 147 291 334 172 42 25 17 15 24 29 29 25 22 18 11 13 10 5 359
228 228 226 224 224 225 225 226 217 218 219 220 223 227 226 215 216 219 216 234 234 227 203 192 279 288 244 45 28 16 11 28 37 37 36 33 30 24 20 21 17 14 10
231 226 224 223 224 224 224 221 215 219 220 216 217 217 220 223 231 202 224 235 218 218 222 219 258 247 249 99 19 36 51 56 52 43 36 37 34 31 27 27 23 22 19
223 222 223 225 225 225 223 214 207 212 218 219 218 216 211 207 217 220 233 230 219 212 220 231 237 251 172 153 158 118 85 68 44 41 42 37 29 22 14 12 7 7 5
228 230 231 231 229 223 219 210 207 210 210 214 210 213 210 205 214 232 223 220 215 211 216 201 192 159 148 152 142 125 113 98 79 62 38 27 18 7 2 360 356 355 356
230 233 234 235 233 225 219 209 208 211 214 211 212 218 206 218 221 220 213 208 198 189 186 178 168 153 143 141 137 134 123 94 61 34 24 12 8 3 0 358 355 357 357
230 233 235 235 233 225 214 202 206 210 211 210 201 209 217 214 209 199 196 190 183 185 169 152 153 144 139 144 149 140 137 132 15 0 1 358 359 359 356 355 356 355 357
233 235 233 232 230 221 207 203 203 207 208 204 202 208 206 195 190 188 190 183 171 168 157 151 150 156 148 161 196 177 183 236 290 310 339 354 355 356 354 358 358 358 357
230 230 229 229 225 217 206 204 204 205 200 198 192 198 196 188 189 184 177 172 167 169 169 166 157 154 153 146 167 212 204 225 281 288 323 352 355 358 359 359 358 357 357
229 227 225 224 221 216 204 206 207 206 205 197 192 197 195 185 177 172 172 172 172 172 173 169 162 163 142 141 149 155 165 216 165 230 295 345 3 0 359 358 357 355 351
226 224 221 219 217 208 208 208 209 204 201 202 194 194 187 177 175 174 174 173 175 174 172 170 162 147 111 62 41 35 9 354 348 345 334 344 357 6 359 357 354 352 348
221 219 217 215 210 207 207 205 205 209 203 197 194 193 185 179 177 177 175 177 178 176 176 170 150 121 87 47 11 2 3 2 356 358 347 345 349 349 354 350 351 348 347